Champaign, IL

7:16 AM CDT on March 26, 2017 (GMT -0500)
Univ Of Illinois-Willard

Weather History for KCMI - February, 2013

Change the Weather History Date:

Wednesday, February 27, 2013

  Actual Average Record
Temperature  
Mean Temperature 33 °F 34 °F  
Max Temperature 33 °F 42 °F 60 °F (1999)
Min Temperature 32 °F 25 °F -9 °F (2015)
Degree Days  
Heating Degree Days 32 31  
Month to date heating degree days 946 963  
Since 1 July heating degree days 4130 4473  
Cooling Degree Days 0 0  
Month to date cooling degree days 0 0  
Year to date cooling degree days 0 0  
Moisture  
Dew Point 30 °F    
Average Humidity 91    
Maximum Humidity 100    
Minimum Humidity 82    
Precipitation  
Precipitation 0.02 in 0.07 in 0.96 in (2011)
Month to date precipitation 2.68 1.95  
Year to date precipitation 5.05 4.00  
Sea Level Pressure  
Sea Level Pressure 29.66 in    
Wind  
Wind Speed 15 mph (West)    
Max Wind Speed 21 mph    
Max Gust Speed 25 mph    
Visibility 3 miles    
Events Fog , Rain , Snow    
T = Trace of Precipitation, MM = Missing Value Source: NWS Daily Summary

Daily Weather History Graph

Daily Weather History Graph

Search for Another Location

Airport or City:

Trip Planner

Search our weather history database for the weather conditions in past years. The results will help you decide how hot, cold, wet, or windy it might be!

Date:

Astronomy

Feb. 27, 2013 Rise Set
Actual Time 6:29 AM CST 5:43 PM CST
Civil Twilight 6:01 AM CST 6:10 PM CST
Nautical Twilight 5:30 AM CST 6:41 PM CST
Astronomical Twilight 4:59 AM CST 7:13 PM CST
Moon 8:04 PM CST (2/27) 7:04 AM CST (2/27)
Length of Visible Light 12h 08m
Length of Day
11h 13m
Waning Gibbous, 96% of the Moon is Illuminated
Feb 27
Waning Gibbous
Mar 4
Last Quarter
Mar 11
New
Mar 19
First Quarter
Mar 27
Full

Hourly Weather History & Observations

Time (CST) Temp. Windchill Dew Point Humidity Pressure Visibility Wind Dir Wind Speed Gust Speed Precip Events Conditions
12:31 AM 33.8 °F 28.6 °F 33.8 °F 100% 29.52 in 0.5 mi WNW 5.8 mph - N/A Fog Fog
12:38 AM 33.8 °F 27.7 °F 33.8 °F 100% 29.52 in 0.2 mi WNW 6.9 mph - N/A Fog Fog
12:53 AM 33.1 °F 26.1 °F 33.1 °F 100% 29.55 in 0.2 mi West 8.1 mph - N/A Fog Fog
1:45 AM 33.8 °F 25.3 °F 33.8 °F 100% 29.55 in 0.5 mi West 11.5 mph - N/A Fog Fog
1:53 AM 33.1 °F 24.4 °F 33.1 °F 100% 29.57 in 0.5 mi WSW 11.5 mph - N/A Fog Fog
2:53 AM 33.1 °F 23.9 °F 33.1 °F 100% 29.58 in 0.8 mi West 12.7 mph - N/A   Mist
3:51 AM 32.0 °F 22.5 °F - N/A% 29.56 in 1.0 mi West 12.7 mph - N/A   Overcast
3:53 AM 32.0 °F 22.1 °F - N/A% 29.58 in 1.0 mi West 13.8 mph - N/A   Overcast
4:53 AM 32.0 °F 23.0 °F - N/A% 29.59 in 1.0 mi West 11.5 mph - N/A   Overcast
5:53 AM 32.0 °F 23.0 °F - N/A% 29.61 in 1.0 mi WSW 11.5 mph - N/A   Overcast
6:53 AM 32.0 °F 23.6 °F - N/A% 29.62 in 1.2 mi West 10.4 mph - 0.00 in   Overcast
7:42 AM 32.0 °F 23.6 °F 32.0 °F 100% 29.62 in 1.2 mi WSW 10.4 mph - 0.00 in Rain Light Freezing Rain
7:53 AM 32.0 °F 23.0 °F 32.0 °F 100% 29.65 in 1.2 mi WSW 11.5 mph - 0.00 in Rain Light Freezing Rain
8:08 AM 32.0 °F 22.5 °F - N/A% 29.63 in 1.2 mi West 12.7 mph - 0.00 in   Overcast
8:53 AM 32.0 °F 22.5 °F 30.0 °F 92% 29.65 in 1.5 mi West 12.7 mph - 0.01 in Snow Light Snow
9:33 AM 32.0 °F 22.5 °F 30.2 °F 93% 29.63 in 1.2 mi West 12.7 mph - 0.00 in Snow Light Snow
9:53 AM 32.0 °F 22.5 °F 30.0 °F 92% 29.65 in 2.0 mi West 12.7 mph - 0.01 in Snow Light Snow
10:13 AM 32.0 °F 21.6 °F 30.2 °F 93% 29.63 in 2.0 mi West 15.0 mph - 0.00 in Snow Light Snow
10:38 AM 32.0 °F 20.8 °F 30.2 °F 93% 29.64 in 1.8 mi West 17.3 mph - 0.00 in Snow Light Snow
10:53 AM 32.0 °F 20.8 °F 28.9 °F 88% 29.66 in 2.0 mi West 17.3 mph - 0.00 in Snow Light Snow
11:21 AM 32.0 °F 20.5 °F 28.4 °F 87% 29.65 in 3.0 mi West 18.4 mph - 0.00 in Snow Light Snow
11:53 AM 32.0 °F 20.5 °F 28.9 °F 88% 29.66 in 3.0 mi West 18.4 mph - 0.00 in Snow Light Snow
11:56 AM 33.8 °F 23.2 °F 28.4 °F 81% 29.64 in 3.0 mi West 17.3 mph - 0.00 in Snow Light Snow
12:50 PM 33.8 °F 23.5 °F 28.4 °F 81% 29.64 in 3.0 mi West 16.1 mph - 0.00 in Snow Light Snow
12:53 PM 33.1 °F 22.6 °F 28.9 °F 85% 29.67 in 3.0 mi West 16.1 mph - 0.00 in Snow Light Snow
1:53 PM 33.1 °F 22.2 °F 28.9 °F 85% 29.68 in 2.5 mi West 17.3 mph 25.3 mph 0.00 in Snow Light Snow
2:07 PM 33.8 °F 22.5 °F 30.2 °F 87% 29.66 in 1.8 mi West 19.6 mph - 0.00 in Snow Light Snow
2:10 PM 33.8 °F 22.8 °F 30.2 °F 87% 29.66 in 2.0 mi West 18.4 mph 24.2 mph 0.00 in Snow Light Snow
2:19 PM 32.0 °F 20.1 °F 28.4 °F 87% 29.66 in 1.8 mi West 19.6 mph - 0.00 in Snow Light Snow
2:27 PM 32.0 °F 20.1 °F 28.4 °F 87% 29.66 in 1.8 mi West 19.6 mph - 0.00 in Snow Light Snow
2:46 PM 33.8 °F 22.8 °F 28.4 °F 81% 29.67 in 2.0 mi West 18.4 mph - 0.00 in Snow Light Snow
2:53 PM 33.1 °F 21.2 °F 28.9 °F 85% 29.69 in 2.0 mi West 20.7 mph - 0.00 in Snow Light Snow
3:14 PM 33.8 °F 22.8 °F 28.4 °F 81% 29.68 in 3.0 mi West 18.4 mph - 0.00 in Snow Light Snow
3:29 PM 32.0 °F 20.8 °F 28.4 °F 87% 29.68 in 2.5 mi West 17.3 mph 21.9 mph 0.00 in Snow Light Snow
3:46 PM 33.8 °F 23.9 °F 28.4 °F 81% 29.68 in 4.0 mi West 15.0 mph - 0.00 in Snow Light Snow
3:53 PM 33.1 °F 21.9 °F 28.9 °F 85% 29.70 in 4.0 mi West 18.4 mph - 0.00 in Snow Light Snow
4:53 PM 32.0 °F 22.1 °F 28.0 °F 85% 29.72 in 5.0 mi West 13.8 mph - 0.00 in   Overcast
5:53 PM 32.0 °F 21.2 °F 28.9 °F 88% 29.74 in 7.0 mi West 16.1 mph - 0.00 in   Overcast
6:04 PM 32.0 °F 21.2 °F 28.4 °F 87% 29.72 in 7.0 mi West 16.1 mph - N/A   Overcast
6:53 PM 32.0 °F 21.6 °F 28.0 °F 85% 29.75 in 8.0 mi West 15.0 mph - 0.00 in Snow Light Snow
8:53 PM 32.0 °F 21.2 °F 28.9 °F 88% 29.76 in 8.0 mi West 16.1 mph - N/A   Overcast
9:15 PM 32.0 °F 21.6 °F 28.4 °F 87% 29.74 in 7.0 mi West 15.0 mph - N/A   Overcast
9:46 PM 32.0 °F 21.6 °F 28.4 °F 87% 29.75 in 7.0 mi West 15.0 mph - N/A   Overcast
9:53 PM 32.0 °F 21.2 °F 28.9 °F 88% 29.77 in 7.0 mi West 16.1 mph - 0.00 in Snow Light Snow
10:19 PM 32.0 °F 21.2 °F 28.4 °F 87% 29.75 in 7.0 mi West 16.1 mph - 0.00 in Snow Light Snow
10:53 PM 32.0 °F 20.8 °F 28.9 °F 88% 29.77 in 6.0 mi West 17.3 mph 23.0 mph 0.00 in Snow Light Snow
11:04 PM 32.0 °F 21.2 °F 28.4 °F 87% 29.74 in 7.0 mi West 16.1 mph - N/A   Overcast
11:53 PM 32.0 °F 20.8 °F 28.9 °F 88% 29.77 in 3.0 mi West 17.3 mph - 0.00 in Snow Light Snow